Regional Weather Roundup
Issued by NWS Little Rock, AR

Home | Current Version | Previous Version | Graphics & Text | Print | Product List | Glossary On
Versions: 1 2 3 4 5 6 7 8 9 10 11 12 13 14 15 16 17 18 19 20 21 22 23 24 25 26 27 28 29 30 31 32 33 34 35 36 37 38 39 40 41 42 43 44 45 46 47 48 49 50
000
ASUS44 KLZK 131705
RWRLZK

WEATHER ROUNDUP FOR ARKANSAS
NATIONAL WEATHER SERVICE LITTLE ROCK AR
1200 PM CDT SUN JUL 13 2014

NOTE: "FAIR" INDICATES FEW OR NO CLOUDS BELOW 12,000 FEET WITH NO
SIGNIFICANT WEATHER AND/OR OBSTRUCTIONS TO VISIBILITY.

ARZ001-003-010-029-131800-
NORTHWEST ARKANSAS

CITY           SKY/WX    TMP DP  RH WIND       PRES   REMARKS
FAYETTEVILLE   SUNNY     88  70  55 S14       30.08F HX  93
FORT SMITH     SUNNY     91  71  51 SW10G17   30.05F HX  97
HARRISON       PTSUNNY   86  69  56 NW5       30.09S HX  90
BENTONVILLE    SUNNY     88  66  48 SW15      30.09S HX  90
ROGERS         SUNNY     88  66  48 SW14G21   30.09F HX  90
SILOAM SPGS    SUNNY     90  66  45 SW12      30.08F HX  92
HIGHFILL       SUNNY     88  68  51 SW12G20   30.07F HX  91
SPRINGDALE     SUNNY     88  70  55 SW14G25   30.11F HX  92
$$

ARZ004-005-016-131800-
NORTH CENTRAL ARKANSAS

CITY           SKY/WX    TMP DP  RH WIND       PRES   REMARKS
BATESVILLE     SUNNY     90  73  58 S8        30.05F HX  98
FLIPPIN        SUNNY     88  70  55 S5        30.06F HX  92
MTN HOME       MOSUNNY   85  73  67 CALM      30.06F HX  91
$$

ARZ040-041-131800-
WEST CENTRAL ARKANSAS

CITY           SKY/WX    TMP DP  RH WIND       PRES   REMARKS
MENA           SUNNY     91  66  43 W10       30.11F HX  94
MOUNT IDA      SUNNY     90  73  57 VRB3      30.07F HX  98
$$

ARZ009-017-025-026-028-131800-
NORTHEAST ARKANSAS

CITY           SKY/WX    TMP DP  RH WIND       PRES   REMARKS
CORNING        LGT RAIN  88  77  70 SW7       30.05F HX 100
JONESBORO      SUNNY     89  75  63 S13       30.05F HX  99
NEWPORT        SUNNY     92  76  59 S12       30.06F HX 104
WALNUT RIDGE   SUNNY     90  73  58 SW10      30.04F HX  98
BLYTHEVILLE    MOSUNNY   90  76  63 SW10G17   30.06F HX 101
$$

ARZ022-023-033-042-044-131800-
CENTRAL ARKANSAS

CITY           SKY/WX    TMP DP  RH WIND       PRES   REMARKS
LITTLE ROCK    SUNNY     92  71  50 S7        30.07F HX  98
N LITTLE ROCK  SUNNY     89  75  63 SW6       30.07F HX 100
JACKSONVILLE   SUNNY     91  73  55 VRB6      30.07F HX  99
SEARCY         SUNNY     92  75  57 VRB7      30.07F HX 102
HOT SPRINGS    HAZE      91  72  53 SW9       30.08F VSB<1/4 HX  98
RUSSELLVILLE   SUNNY     90  73  57 VRB3      30.06F HX  98
CLINTON        FAIR      90  75  62 SW3       30.06F HX 100
$$

ARZ036-131800-
EAST ARKANSAS

CITY           SKY/WX    TMP DP  RH WIND       PRES   REMARKS
WEST MEMPHIS   SUNNY     89  78  70 MISG      30.06F HX 103
$$

ARZ050-053-066-070-073-131800-
SOUTHWEST ARKANSAS

CITY           SKY/WX    TMP DP  RH WIND       PRES   REMARKS
CAMDEN         SUNNY     93  72  49 SW6       30.07F HX 100
TEXARKANA      MOSUNNY   94  68  42 SW5       30.08F HX  98
EL DORADO      SUNNY     91  73  55 SW3       30.09F HX  99
DE QUEEN       SUNNY     90  73  57 SW9       30.06F HX  98
$$

ARZ056-057-069-131800-
SOUTHEAST ARKANSAS

CITY           SKY/WX    TMP DP  RH WIND       PRES   REMARKS
PINE BLUFF     MOSUNNY   91  72  53 S7        30.08F HX  98
MONTICELLO     MOSUNNY   91  72  53 CALM      30.08F HX  98

$$





USA.gov is the U.S. government's official web portal to all federal, state and local government web resources and services.